TimeMST,TemperatureF,Dew PointF,Humidity,Sea Level PressureIn,VisibilityMPH,Wind Direction,Wind SpeedMPH,Gust SpeedMPH,PrecipitationIn,Events,Conditions,WindDirDegrees,DateUTC
12:56 AM,-5.1,-9.9,80,30.14,-9999.0,Calm,Calm,-,N/A,,Unknown,0,2013-01-12 07:56:00
1:56 AM,-6.0,-9.9,83,30.15,-9999.0,Calm,Calm,-,0.01,,Unknown,0,2013-01-12 08:56:00
2:56 AM,-6.0,-11.0,79,30.17,-9999.0,Calm,Calm,-,N/A,,Unknown,0,2013-01-12 09:56:00
3:56 AM,-6.0,-11.0,79,30.16,-9999.0,Calm,Calm,-,N/A,,Unknown,0,2013-01-12 10:56:00
4:56 AM,-7.1,-11.9,79,30.17,-9999.0,Calm,Calm,-,N/A,,Unknown,0,2013-01-12 11:56:00
5:56 AM,-13.0,-17.0,82,30.22,-9999.0,Calm,Calm,-,N/A,,Unknown,0,2013-01-12 12:56:00
6:56 AM,-17.0,-20.9,82,30.26,-9999.0,Calm,Calm,-,N/A,,Unknown,0,2013-01-12 13:56:00
7:56 AM,-18.9,-24.0,78,30.31,-9999.0,Calm,Calm,-,N/A,,Unknown,0,2013-01-12 14:56:00
8:56 AM,-16.1,-20.0,82,30.29,-9999.0,Calm,Calm,-,N/A,,Unknown,0,2013-01-12 15:56:00
9:56 AM,-11.0,-16.1,78,30.28,-9999.0,Calm,Calm,-,N/A,,Unknown,0,2013-01-12 16:56:00
10:56 AM,-8.0,-15.0,71,30.28,-9999.0,Calm,Calm,-,N/A,,Unknown,0,2013-01-12 17:56:00
11:56 AM,-8.0,-13.0,79,30.24,-9999.0,ESE,3.5,-,N/A,,Unknown,110,2013-01-12 18:56:00
12:56 PM,-6.0,-11.9,75,30.21,-9999.0,Calm,Calm,-,N/A,,Unknown,0,2013-01-12 19:56:00
1:56 PM,-2.0,-9.0,72,30.18,-9999.0,Calm,Calm,-,N/A,,Unknown,0,2013-01-12 20:56:00
2:56 PM,-0.0,-7.1,72,30.17,-9999.0,Calm,Calm,-,N/A,,Unknown,0,2013-01-12 21:56:00
3:56 PM,-0.0,-6.0,76,30.18,-9999.0,Calm,Calm,-,N/A,,Unknown,0,2013-01-12 22:56:00
4:56 PM,-0.9,-6.0,79,30.19,-9999.0,Calm,Calm,-,N/A,,Unknown,0,2013-01-12 23:56:00
5:56 PM,-4.0,-9.0,79,30.27,-9999.0,Calm,Calm,-,N/A,,Unknown,0,2013-01-13 00:56:00
6:56 PM,-5.1,-9.9,80,30.30,-9999.0,Calm,Calm,-,N/A,,Unknown,0,2013-01-13 01:56:00
7:56 PM,-8.0,-11.9,83,30.35,-9999.0,Calm,Calm,-,N/A,,Unknown,0,2013-01-13 02:56:00
8:56 PM,-8.0,-13.0,79,30.32,-9999.0,Calm,Calm,-,N/A,,Unknown,0,2013-01-13 03:56:00
9:56 PM,-11.0,-15.0,83,30.32,-9999.0,Calm,Calm,-,N/A,,Unknown,0,2013-01-13 04:56:00
10:56 PM,-11.0,-16.1,78,30.31,-9999.0,Calm,Calm,-,N/A,,Unknown,0,2013-01-13 05:56:00
11:56 PM,-13.0,-18.9,75,30.33,-9999.0,Calm,Calm,-,N/A,,Unknown,0,2013-01-13 06:56:00